Flag for Germany Weather past 2 weeks in Cuxhaven, Lower Saxony, Germany

Now
75 °F

Passing clouds.


Feels Like: 78 °F
Forecast: 66 / 80 °F
Wind: 8 mph from Southeast

Location: Nordholz

Current Time: Aug 1, 2014 at 11:59:19 AM

Latest Report: Aug 1, 2014 at 11:20 AM


Visibility: N/A

Pressure: 29.89 "Hg

Humidity: 57%

Dew point: 59 °F

Location of CuxhavenLocation

Historic Weather in Cuxhaven — Graph

°F

Cuxhaven temperature yesterday

Maximum temperature yesterday: 72 °F (at 2:20 PM)
Minimum temperature yesterday: 61 °F (at 6:20 AM)
Average temperature yesterday: 66 °F

Past Weeks' High & Low Weather Summary

 TemperatureHumidityPressure
High90 °F (Jul 19, 3:20 PM)100% (Jul 28, 12:20 AM)30.21 "Hg (Jul 28, 12:20 AM)
Low61 °F (Jul 23, 4:20 AM)33% (Jul 19, 5:20 PM)29.80 "Hg (Jul 20, 1:20 PM)
Average71 °F72%29.98 "Hg
* Reported Jul 17 10:20 AM — Aug 1 10:20 AM, Cuxhaven, Weather by CustomWeather, © 2014

Note: Actual official high and low records may vary slightly from our data, if they occured in-between our weather recording intervals... More about our weather records

Advertising

Cuxhaven weather history for previous 24 hours

 ConditionsComfort  
Time TempWeatherWind HumidityBarometerVisibility
10:20 AM
Aug 1
73 °FPassing clouds.7 mph57%29.89 "HgN/A
9:20 AM70 °FScattered clouds.8 mph64%29.89 "HgN/A
8:20 AM64 °FScattered clouds.8 mph73%29.89 "HgN/A
7:20 AM63 °FScattered clouds.6 mph77%29.89 "HgN/A
6:20 AM63 °FFog.7 mph73%29.92 "HgN/A
5:20 AM61 °FPassing clouds.7 mph83%29.92 "HgN/A
4:20 AM61 °FPassing clouds.7 mph83%29.92 "HgN/A
3:20 AM61 °FPassing clouds.5 mph83%29.92 "HgN/A
2:20 AM63 °FPassing clouds.8 mph83%29.92 "HgN/A
1:20 AM63 °FPassing clouds.6 mph83%29.92 "HgN/A
12:20 AM63 °FPassing clouds.8 mph83%29.92 "HgN/A
11:20 PM
Jul 31
64 °FPassing clouds.7 mph83%29.92 "HgN/A
10:20 PM63 °FScattered clouds.5 mph83%29.92 "Hg5 mi
9:51 PM63 °FScattered clouds.3 mph88%29.92 "HgN/A
9:20 PM64 °FBroken clouds.1 mph83%29.92 "HgN/A
8:20 PM68 °FPartly sunny.2 mph78%29.92 "HgN/A
7:20 PM70 °FScattered showers. Partly sunny.2 mph64%29.92 "HgN/A
6:20 PM70 °FPartly sunny.7 mph60%29.95 "HgN/A
5:20 PM70 °FPartly sunny.6 mph69%29.95 "HgN/A
4:20 PM72 °FPartly sunny.8 mph65%29.95 "HgN/A
3:20 PM72 °FScattered clouds.10 mph65%29.95 "HgN/A
2:20 PM72 °FScattered clouds.15 mph61%29.95 "HgN/A
1:20 PM68 °FScattered clouds.9 mph78%29.95 "HgN/A
12:20 PM64 °FBroken clouds.14 mph88%29.95 "HgN/A
11:20 AM68 °FScattered showers. Partly sunny.13 mph73%29.95 "HgN/A
Weather by CustomWeather, © 2014

See weather overviewHow to use our weather pages